Location: Normandy Village
(37.8755°N, 122.2655°W)
Time: 04:38:59
(UTC+00:00)

TSX-5 - Pass Details

Date: 22 September 2019
Orbit: 404 x 1334 km, 68.9° (Epoch: 22 October)

Event Time Altitude Azimuth Distance (km) Brightness Sun altitude
Exits shadow 12:19:12 40° 169° (S) 632 4.0 -19.8°
Maximum altitude 12:20:04 57° 113° (ESE) 492 3.7 -19.6°
Drops below altitude 10° 12:23:09 10° 33° (NNE) 1,465 6.7 -19.0°
Sets 12:25:10 0° 30° (NNE) 2,340 7.7 -18.7°
